Taunton, MA

11:42 PM EDT on July 21, 2017 (GMT -0400)
Taunton Municipal

Weather History for KTAN - June, 2013

Change the Weather History Date:

Thursday, June 27, 2013

  Actual Average Record
Temperature  
Mean Temperature 69 °F -  
Max Temperature 72 °F 80 °F 96 °F (2007)
Min Temperature 66 °F 57 °F 41 °F (1979)
Cooling Degree Days 4    
Growing Degree Days 19 (Base 50)    
Moisture  
Dew Point 65 °F    
Average Humidity 92    
Maximum Humidity 97    
Minimum Humidity 87    
Precipitation  
Precipitation 0.31 in - - ()
Sea Level Pressure  
Sea Level Pressure 29.81 in    
Wind  
Wind Speed 2 mph (ENE)    
Max Wind Speed 7 mph    
Max Gust Speed -    
Visibility 4 miles    
Events Fog , Rain    
Averages and records for this station are not official NWS values.
T = Trace of Precipitation, MM = Missing Value Source: NWS Daily Summary

Daily Weather History Graph

Daily Weather History Graph

Search for Another Location

Airport or City:

Trip Planner

Search our weather history database for the weather conditions in past years. The results will help you decide how hot, cold, wet, or windy it might be!

Date:

Astronomy

Jun. 27, 2013 Rise Set
Actual Time 5:11 AM EDT 8:23 PM EDT
Civil Twilight 4:36 AM EDT 8:57 PM EDT
Nautical Twilight 3:52 AM EDT 9:41 PM EDT
Astronomical Twilight 2:59 AM EDT 10:34 PM EDT
Moon 11:13 PM EDT (6/27) 10:13 AM EDT (6/27)
Length of Visible Light 16h 20m
Length of Day
15h 12m
Waning Gibbous, 76% of the Moon is Illuminated
Jun 27
Waning Gibbous
Jun 30
Last Quarter
Jul 8
New
Jul 15
First Quarter
Jul 22
Full

Hourly Weather History & Observations

Time (EDT) Temp. Dew Point Humidity Pressure Visibility Wind Dir Wind Speed Gust Speed Precip Events Conditions
12:52 AM 69.1 °F 66.0 °F 90% 29.83 in 5.0 mi Calm Calm - N/A   Clear
1:40 AM 66.0 °F 64.9 °F 96% 29.82 in 2.5 mi Calm Calm - N/A   Clear
1:49 AM 66.2 °F 64.4 °F 94% 29.82 in 1.5 mi Calm Calm - N/A   Clear
1:52 AM 66.9 °F 64.9 °F 93% 29.82 in 1.2 mi Calm Calm - N/A   Clear
1:58 AM 66.9 °F 64.9 °F 93% 29.82 in 2.0 mi Calm Calm - N/A   Partly Cloudy
2:32 AM 66.9 °F 64.9 °F 93% 29.82 in 3.0 mi Calm Calm - N/A   Mostly Cloudy
2:52 AM 68.0 °F 66.0 °F 93% 29.81 in 3.0 mi Calm Calm - N/A   Overcast
3:09 AM 68.0 °F 66.0 °F 93% 29.81 in 2.5 mi Calm Calm - N/A   Overcast
3:26 AM 66.9 °F 66.0 °F 97% 29.80 in 1.2 mi NE 3.5 mph - N/A   Overcast
3:52 AM 66.9 °F 66.0 °F 97% 29.80 in 0.5 mi Calm Calm - N/A Fog Fog
4:06 AM 66.9 °F 66.0 °F 97% 29.81 in 1.5 mi Variable 5.8 mph - N/A   Overcast
4:31 AM 66.9 °F 66.0 °F 97% 29.82 in 2.5 mi Variable 4.6 mph - N/A   Overcast
4:52 AM 66.9 °F 64.9 °F 93% 29.82 in 3.0 mi NE 5.8 mph - N/A   Overcast
5:31 AM 66.0 °F 64.0 °F 93% 29.83 in 2.5 mi East 4.6 mph - N/A   Overcast
5:38 AM 66.0 °F 64.0 °F 93% 29.83 in 4.0 mi ENE 5.8 mph - N/A   Overcast
5:52 AM 66.0 °F 64.0 °F 93% 29.83 in 6.0 mi East 4.6 mph - N/A   Overcast
6:52 AM 66.0 °F 64.0 °F 93% 29.84 in 6.0 mi Variable 3.5 mph - N/A   Overcast
7:32 AM 66.0 °F 64.0 °F 93% 29.85 in 2.0 mi Variable 3.5 mph - N/A   Overcast
7:52 AM 66.0 °F 64.0 °F 93% 29.85 in 2.0 mi ENE 4.6 mph - N/A   Overcast
8:04 AM 66.0 °F 64.0 °F 93% 29.85 in 4.0 mi ENE 4.6 mph - N/A   Overcast
8:52 AM 66.0 °F 64.0 °F 93% 29.85 in 5.0 mi Variable 4.6 mph - 0.01 in Rain Light Rain
9:11 AM 66.0 °F 64.0 °F 93% 29.85 in 9.0 mi Calm Calm - 0.01 in   Overcast
9:46 AM 66.2 °F 64.4 °F 94% 29.84 in 1.8 mi ESE 6.9 mph - 0.08 in Rain Heavy Rain
9:52 AM 66.0 °F 64.0 °F 93% 29.84 in 1.2 mi ESE 5.8 mph - 0.12 in Rain Heavy Rain
10:07 AM 66.0 °F 64.0 °F 93% 29.83 in 1.5 mi East 4.6 mph - 0.14 in Rain Rain
10:15 AM 66.9 °F 64.0 °F 90% 29.83 in 2.5 mi East 4.6 mph - 0.18 in Rain Rain
10:19 AM 66.9 °F 64.9 °F 93% 29.83 in 3.0 mi Variable 4.6 mph - 0.18 in Rain Light Rain
10:52 AM 68.0 °F 66.0 °F 93% 29.82 in 10.0 mi Variable 3.5 mph - 0.18 in   Overcast
11:52 AM 69.1 °F 66.0 °F 90% 29.82 in 10.0 mi NNE 5.8 mph - N/A   Overcast
12:41 PM 70.0 °F 66.0 °F 87% 29.82 in 9.0 mi Variable 3.5 mph - N/A   Overcast
12:52 PM 70.0 °F 66.0 °F 87% 29.81 in 9.0 mi Variable 3.5 mph - N/A   Overcast
1:28 PM 70.0 °F 66.0 °F 87% 29.80 in 8.0 mi NE 5.8 mph - N/A   Overcast
1:52 PM 71.1 °F 66.9 °F 87% 29.80 in 9.0 mi NE 3.5 mph - N/A   Overcast
2:52 PM 72.0 °F 68.0 °F 87% 29.79 in 6.0 mi NE 3.5 mph - N/A   Overcast
3:52 PM 72.0 °F 68.0 °F 87% 29.78 in 6.0 mi Variable 3.5 mph - 0.00 in   Overcast
4:52 PM 71.1 °F 66.9 °F 87% 29.78 in 7.0 mi ENE 5.8 mph - N/A   Overcast
5:40 PM 69.1 °F 66.0 °F 90% 29.78 in 4.0 mi NNE 4.6 mph - N/A   Overcast
5:52 PM 69.1 °F 66.0 °F 90% 29.78 in 3.0 mi Variable 4.6 mph - N/A   Overcast
6:19 PM 68.0 °F 64.9 °F 90% 29.78 in 3.0 mi NE 4.6 mph - N/A   Overcast
6:52 PM 66.9 °F 64.0 °F 90% 29.78 in 5.0 mi Variable 3.5 mph - N/A   Overcast
7:14 PM 66.9 °F 64.0 °F 90% 29.78 in 2.5 mi Variable 3.5 mph - N/A   Overcast
7:52 PM 66.9 °F 64.0 °F 90% 29.78 in 2.5 mi Calm Calm - N/A   Overcast
8:15 PM 66.0 °F 64.0 °F 93% 29.77 in 1.5 mi NE 4.6 mph - N/A   Overcast
8:31 PM 66.0 °F 64.0 °F 93% 29.77 in 2.0 mi NNE 4.6 mph - N/A   Overcast
8:52 PM 66.0 °F 64.0 °F 93% 29.78 in 2.0 mi Calm Calm - N/A   Overcast
9:05 PM 66.0 °F 64.0 °F 93% 29.77 in 1.2 mi Variable 4.6 mph - N/A   Overcast
9:41 PM 66.0 °F 64.0 °F 93% 29.78 in 1.8 mi East 4.6 mph - N/A   Overcast
9:52 PM 66.0 °F 64.0 °F 93% 29.78 in 1.5 mi Calm Calm - N/A   Overcast
10:24 PM 66.0 °F 64.0 °F 93% 29.77 in 1.2 mi East 3.5 mph - N/A   Overcast
10:39 PM 66.0 °F 64.0 °F 93% 29.78 in 1.5 mi Variable 3.5 mph - N/A   Overcast
10:49 PM 66.2 °F 64.4 °F 94% 29.77 in 1.2 mi Variable 3.5 mph - N/A   Overcast
10:52 PM 66.0 °F 64.0 °F 93% 29.77 in 1.2 mi Variable 3.5 mph - N/A   Overcast
11:50 PM 66.2 °F 64.4 °F 94% 29.75 in 1.5 mi East 3.5 mph - N/A   Overcast
11:52 PM 66.0 °F 64.0 °F 93% 29.75 in 1.5 mi ENE 4.6 mph - N/A   Overcast